Location: Unspecified
(0.0000°N, 0.0000°E)
Time: 06:48:59
(UTC+02:00)

Centaur D-1AR AC-41 - Visible Passes

Search period start: 26 April 2015 00:00
Search period end: 06 May 2015 00:00
Orbit: 589 x 36254 km, 21.3° (Epoch: 25 April)

Date Brightness Start Highest point End Pass type
(mag) Time Alt. Az. Time Alt. Az. Time Alt. Az.
27 Apr 4.3 07:09:58 10° WNW 07:14:40 86° SSW 07:41:09 10° ESE visible
28 Apr 6.1 04:45:34 10° ENE 04:45:34 10° ENE 04:45:43 10° ENE visible
28 Apr 7.3 16:30:09 10° WSW 02:00:54 11° NW 02:00:54 11° NW visible
29 Apr 6.4 13:33:58 10° WSW 23:29:22 43° NNW 23:36:41 31° NNE visible
30 Apr 7.1 10:56:12 10° WSW 20:33:48 76° NNW 21:09:24 10° ENE visible
02 May 3.5 05:56:09 55° N 05:56:47 61° NNE 06:08:06 10° ESE visible
03 May 6.6 14:57:42 10° WSW 00:47:31 25° NNW 00:47:31 25° NNW visible
04 May 6.8 12:12:58 10° WSW 22:05:59 56° NNW 22:23:17 13° NE visible
